Previsão horária em Senkovichi

Hoje, 25 Junho, Sexta-feira

Tempo Temperatura Precipitação Vento Pressão Humidade
00:00 +20°C° 0.7 mm 2 m/s 747 mmHg 91%
01:00 +19°C° 0.7 mm 2 m/s 747 mmHg 93%
02:00 +19°C° 0.7 mm 2 m/s 747 mmHg 95%
03:00 +19°C° 0.1 mm 2 m/s 747 mmHg 95%
04:00 +19°C° 0.1 mm 2 m/s 747 mmHg 95%
05:00 +19°C° 0.1 mm 2 m/s 747 mmHg 94%
06:00 +21°C° 0.3 mm 2 m/s 746 mmHg 91%
07:00 +23°C° 0.3 mm 2 m/s 746 mmHg 88%
08:00 +24°C° 0.3 mm 2 m/s 746 mmHg 85%
09:00 +26°C° 0 mm 2 m/s 746 mmHg 79%
10:00 +27°C° 0 mm 2 m/s 746 mmHg 73%
11:00 +29°C° 0 mm 2 m/s 747 mmHg 67%
12:00 +29°C° 0 mm 2 m/s 746 mmHg 66%
13:00 +30°C° 0 mm 2 m/s 746 mmHg 65%
14:00 +30°C° 0 mm 2 m/s 746 mmHg 64%
15:00 +30°C° 0.6 mm 2 m/s 745 mmHg 65%
16:00 +30°C° 0.6 mm 1 m/s 745 mmHg 66%
17:00 +28°C° 0.6 mm 0 m/s 744 mmHg 68%
18:00 +26°C° 10.8 mm 2 m/s 745 mmHg 76%
19:00 +22°C° 10.8 mm 3 m/s 745 mmHg 84%
20:00 +18°C° 10.8 mm 4 m/s 746 mmHg 91%
21:00 +18°C° 0.1 mm 3 m/s 746 mmHg 92%
22:00 +18°C° 0.1 mm 3 m/s 746 mmHg 93%
23:00 +17°C° 0.1 mm 3 m/s 746 mmHg 94%

Amanhã, 26 Junho, Sábado

Tempo Temperatura Precipitação Vento Pressão Humidade
00:00 +17°C° 0 mm 3 m/s 747 mmHg 94%
01:00 +17°C° 0 mm 2 m/s 747 mmHg 95%
02:00 +17°C° 0 mm 2 m/s 747 mmHg 96%
03:00 +17°C° 0 mm 2 m/s 747 mmHg 96%
04:00 +18°C° 0 mm 2 m/s 747 mmHg 97%
05:00 +18°C° 0 mm 2 m/s 747 mmHg 97%
06:00 +19°C° 0 mm 2 m/s 747 mmHg 93%
07:00 +19°C° 0 mm 3 m/s 747 mmHg 88%
08:00 +20°C° 0 mm 3 m/s 748 mmHg 83%
09:00 +21°C° 0 mm 3 m/s 748 mmHg 79%
10:00 +22°C° 0 mm 4 m/s 748 mmHg 75%
11:00 +23°C° 0 mm 4 m/s 748 mmHg 71%
12:00 +23°C° 0 mm 4 m/s 748 mmHg 71%
13:00 +23°C° 0 mm 4 m/s 748 mmHg 70%
14:00 +23°C° 0 mm 4 m/s 748 mmHg 70%
15:00 +24°C° 0 mm 3 m/s 748 mmHg 70%
16:00 +24°C° 0 mm 3 m/s 748 mmHg 70%
17:00 +24°C° 0 mm 3 m/s 748 mmHg 70%
18:00 +22°C° 0 mm 3 m/s 747 mmHg 75%
19:00 +21°C° 0 mm 3 m/s 747 mmHg 79%
20:00 +20°C° 0 mm 2 m/s 747 mmHg 84%
21:00 +19°C° 0 mm 2 m/s 747 mmHg 86%
22:00 +18°C° 0 mm 2 m/s 748 mmHg 89%
23:00 +17°C° 0 mm 2 m/s 748 mmHg 91%

Depois de amanhã, 27 Junho, Domingo

Tempo Temperatura Precipitação Vento Pressão Humidade
00:00 +17°C° 0 mm 2 m/s 748 mmHg 92%
01:00 +16°C° 0 mm 3 m/s 748 mmHg 92%
02:00 +16°C° 0 mm 3 m/s 748 mmHg 93%
03:00 +16°C° 0 mm 3 m/s 748 mmHg 93%
04:00 +16°C° 0 mm 3 m/s 748 mmHg 93%
05:00 +14°C° 0 mm 3 m/s 748 mmHg 93%
06:00 +17°C° 0 mm 3 m/s 748 mmHg 88%
07:00 +18°C° 0 mm 3 m/s 748 mmHg 82%
08:00 +20°C° 0 mm 4 m/s 748 mmHg 77%
09:00 +21°C° 0 mm 4 m/s 748 mmHg 72%
10:00 +22°C° 0 mm 4 m/s 748 mmHg 67%
11:00 +23°C° 0 mm 4 m/s 748 mmHg 62%
12:00 +25°C° 0 mm 4 m/s 748 mmHg 61%
13:00 +25°C° 0 mm 4 m/s 748 mmHg 60%
14:00 +25°C° 0 mm 4 m/s 748 mmHg 59%
15:00 +25°C° 0 mm 4 m/s 748 mmHg 59%
16:00 +25°C° 0 mm 3 m/s 748 mmHg 60%
17:00 +25°C° 0 mm 3 m/s 748 mmHg 60%
18:00 +24°C° 0 mm 3 m/s 748 mmHg 66%
19:00 +21°C° 0 mm 3 m/s 748 mmHg 73%
20:00 +20°C° 0 mm 2 m/s 748 mmHg 79%
21:00 +19°C° 0 mm 2 m/s 748 mmHg 81%
22:00 +18°C° 0 mm 2 m/s 748 mmHg 83%
23:00 +17°C° 0 mm 3 m/s 749 mmHg 84%

28 Junho, Segunda-feira

Tempo Temperatura Precipitação Vento Pressão Humidade
00:00 +16°C° 0 mm 2 m/s 749 mmHg 86%
01:00 +16°C° 0 mm 2 m/s 749 mmHg 87%
02:00 +15°C° 0 mm 2 m/s 749 mmHg 89%
03:00 +15°C° 0 mm 2 m/s 749 mmHg 90%
04:00 +15°C° 0 mm 2 m/s 749 mmHg 91%
05:00 +15°C° 0 mm 2 m/s 749 mmHg 91%
06:00 +17°C° 0 mm 2 m/s 749 mmHg 85%
07:00 +18°C° 0 mm 3 m/s 749 mmHg 78%
08:00 +20°C° 0 mm 3 m/s 749 mmHg 72%
09:00 +21°C° 0 mm 3 m/s 749 mmHg 67%
10:00 +22°C° 0 mm 4 m/s 749 mmHg 62%
11:00 +23°C° 0 mm 4 m/s 749 mmHg 57%
12:00 +23°C° 0 mm 4 m/s 749 mmHg 55%
13:00 +25°C° 0 mm 4 m/s 749 mmHg 53%
14:00 +25°C° 0 mm 4 m/s 749 mmHg 52%
15:00 +25°C° 0 mm 4 m/s 748 mmHg 55%
16:00 +24°C° 0 mm 3 m/s 748 mmHg 59%
17:00 +24°C° 0 mm 3 m/s 748 mmHg 63%
18:00 +22°C° 0 mm 3 m/s 748 mmHg 68%
19:00 +21°C° 0 mm 2 m/s 748 mmHg 72%
20:00 +20°C° 0 mm 2 m/s 748 mmHg 77%
21:00 +19°C° 0 mm 2 m/s 748 mmHg 79%
22:00 +18°C° 0 mm 2 m/s 748 mmHg 82%
23:00 +17°C° 0 mm 2 m/s 748 mmHg 84%

29 Junho, Terça-feira

Tempo Temperatura Precipitação Vento Pressão Humidade
00:00 +17°C° 0 mm 2 m/s 748 mmHg 87%
01:00 +16°C° 0 mm 2 m/s 748 mmHg 90%
02:00 +16°C° 0 mm 2 m/s 748 mmHg 93%
03:00 +16°C° 0 mm 2 m/s 747 mmHg 93%
04:00 +16°C° 0 mm 2 m/s 747 mmHg 93%
05:00 +16°C° 0 mm 2 m/s 747 mmHg 93%
06:00 +17°C° 0 mm 2 m/s 747 mmHg 86%
07:00 +19°C° 0 mm 2 m/s 747 mmHg 78%
08:00 +21°C° 0 mm 3 m/s 748 mmHg 71%
09:00 +22°C° 0 mm 3 m/s 747 mmHg 66%
10:00 +24°C° 0 mm 3 m/s 747 mmHg 60%
11:00 +25°C° 0 mm 3 m/s 747 mmHg 55%
12:00 +26°C° 0 mm 3 m/s 747 mmHg 53%
13:00 +26°C° 0 mm 3 m/s 747 mmHg 51%
14:00 +27°C° 0 mm 3 m/s 747 mmHg 49%
15:00 +27°C° 0 mm 3 m/s 746 mmHg 50%
16:00 +27°C° 0 mm 3 m/s 746 mmHg 52%
17:00 +27°C° 0 mm 3 m/s 746 mmHg 54%
18:00 +25°C° 0 mm 2 m/s 746 mmHg 60%
19:00 +24°C° 0 mm 2 m/s 746 mmHg 66%
20:00 +23°C° 0 mm 1 m/s 745 mmHg 73%
21:00 +22°C° 0 mm 1 m/s 745 mmHg 74%
22:00 +21°C° 0 mm 1 m/s 746 mmHg 76%
23:00 +19°C° 0 mm 2 m/s 746 mmHg 77%

30 Junho, Quarta-feira

Tempo Temperatura Precipitação Vento Pressão Humidade
00:00 +19°C° 0 mm 2 m/s 745 mmHg 79%
01:00 +19°C° 0 mm 1 m/s 745 mmHg 81%
02:00 +19°C° 0 mm 1 m/s 745 mmHg 83%
03:00 +17°C° 0 mm 2 m/s 745 mmHg 83%
04:00 +17°C° 0 mm 2 m/s 745 mmHg 83%
05:00 +17°C° 0 mm 2 m/s 745 mmHg 82%
06:00 +19°C° 0 mm 2 m/s 745 mmHg 76%
07:00 +21°C° 0 mm 2 m/s 745 mmHg 71%
08:00 +24°C° 0 mm 2 m/s 745 mmHg 65%
09:00 +25°C° 0 mm 3 m/s 745 mmHg 61%
10:00 +27°C° 0 mm 3 m/s 744 mmHg 57%
11:00 +28°C° 0 mm 3 m/s 744 mmHg 53%
12:00 +28°C° 0 mm 4 m/s 744 mmHg 52%
13:00 +29°C° 0 mm 4 m/s 744 mmHg 50%
14:00 +29°C° 0 mm 4 m/s 744 mmHg 48%
15:00 +29°C° 0 mm 3 m/s 743 mmHg 51%
16:00 +29°C° 0 mm 3 m/s 743 mmHg 54%
17:00 +28°C° 0 mm 2 m/s 743 mmHg 57%
18:00 +27°C° 0.2 mm 2 m/s 742 mmHg 63%
19:00 +25°C° 0.2 mm 2 m/s 742 mmHg 69%
20:00 +24°C° 0.2 mm 1 m/s 742 mmHg 75%
21:00 +23°C° 0.5 mm 2 m/s 742 mmHg 81%
22:00 +20°C° 0.5 mm 2 m/s 742 mmHg 86%
23:00 +19°C° 0.5 mm 3 m/s 742 mmHg 92%
Mostrar mais

Necessitamos do seu Consentimento

A Meteoprog e os seus Fornecedores de Serviços podem armazenar e aceder a dados pessoais como cookies, identificadores do dispositivo ou outras tecnologias semelhantes existentes no seu dispositivo e processar estes dados para personalizar conteúdos e anúncios, assim como funcionalidades nas redes sociais e análise de tráfego.

  • Armazenar e/ou aceder a informações no seu dispositivo

    Os cookies, identificadores do dispositivo ou outras informações podem ser armazenados ou acedidos no seu dispositivo, para os fins acima indicados.

  • Anúncios e conteúdos personalizados, medição de anúncios e conteúdos, dados sobre o público-alvo e desenvolvimento de produtos

    Os anúncios e os conteúdos podem ser personalizados com base num perfil. Podem ser adicionados dados adicionais para uma maior personalização dos anúncios e dos conteúdos. A eficácia dos anúncios e dos conteúdos pode ser medida. Podem ser obtidas informações sobre o público que visualizou os anúncios e os conteúdos. Estes dados podem ser usados para desenvolver ou melhorar sistemas, softwares ou a experiência do utilizador.

Ao clicar em "Eu concordo”, permitirá o uso de cookies, identificadores do dispositivo e web beacons mencionados ou outras tecnologias semelhantes. As configurações do navegador do seu dispositivo podem ser alteradas.

Para certos fins, podem ser invocados interesses legítimos ao invés de consentimento. Pode ler mais informação sobre este assunto na nossa Política de Privacidade e Cookies.